Regional Weather Roundup
Issued by NWS

Home | Current Version | Previous Version | Text Only | Print | Product List | Glossary Off
Versions: 1 2 3 4 5 6 7 8 9 10 11 12 13 14 15 16 17 18 19 20 21 22 23 24 25 26 27 28 29 30 31 32 33 34 35 36 37 38 39 40 41 42 43 44 45 46 47 48 49 50

000
ASUS43 KLSX 031010
RWRMO

WEATHER SUMMARY FOR MISSOURI
NATIONAL WEATHER SERVICE SPRINGFIELD MO
500 AM CDT THU SEP 03 2015

NOTE: "FAIR" INDICATES FEW OR NO CLOUDS BELOW 12,000 FEET WITH NO
       SIGNIFICANT WEATHER AND/OR OBSTRUCTIONS TO VISIBILITY.
       CURRENT SKY AND/OR WEATHER CONDITIONS ARE NOT AVAILABLE FOR
       CHILLICOTHE AND FARMINGTON.

MOZ001>031-035>038-043-044-053-054-031100-
...NORTHERN AND WESTERN MISSOURI...

CITY           SKY/WX    TMP DP  RH WIND       PRES   REMARKS
KANSAS CTY INT PTCLDY    73  67  81 S10       29.94R
KANSAS C DTWN  CLEAR     76  67  73 S10       29.93R
LEE`S SUMMIT   CLEAR     73  67  81 S8        29.96S
ST JOSEPH      CLEAR     72  69  90 S6        29.91S
CHILLICOTHE      N/A     71  69  93 CALM      29.95S
KIRKSVILLE     PTCLDY    72  67  84 SW5       29.96S

$$
MOZ066>068-077>081-088>096-101>105-031100-
...SOUTHWEST MISSOURI...

CITY           SKY/WX    TMP DP  RH WIND       PRES   REMARKS
SPRINGFIELD    CLEAR     70  65  84 S8        30.01R
JOPLIN         CLEAR     71  66  84 S8        29.99R

$$
MOZ032>034-039>042-045>050-055>058-069>072-031100-
...CENTRAL MISSOURI...

CITY           SKY/WX    TMP DP  RH WIND       PRES   REMARKS
COLUMBIA       CLOUDY    72  68  87 S6        29.98S
JEFFERSON CITY MOCLDY    71  67  87 E3        29.97S
ROLLA          CLEAR     69  66  90 S8        30.01R
SEDALIA        MOCLDY    73  68  84 S6        29.98S
WHITEMAN AFB   PTCLDY    71  68  90 S7        29.95S
WARRENSBURG    PTCLDY    70  66  88 S3        29.95S
OSAGE BEACH    CLEAR     68  64  88 CALM      30.00S

$$
MOZ051-052-059>065-031100-
...EAST CENTRAL MISSOURI...

CITY           SKY/WX    TMP DP  RH WIND       PRES   REMARKS
ST LOUIS INTL  CLEAR     77  68  73 SW3       30.00R
SPIRIT OF STL  PTCLDY    70  70 100 CALM      29.98S FOG
ST CHARLES     PTCLDY    70  69  97 E3        29.98R

$$
MOZ072>076-082>087-097>100-106>115-031100-
...SOUTH CENTRAL AND SOUTHEAST MISSOURI...

CITY           SKY/WX    TMP DP  RH WIND       PRES   REMARKS
CAPE GIRARDEAU CLEAR     65  65 100 CALM      30.01R FOG
FARMINGTON     CLEAR     66  64  94 CALM      30.05S
POPLAR BLUFF   CLEAR     67  65  93 CALM      30.00R
WEST PLAINS    CLEAR     67  64  90 CALM      30.05S FOG

$$


USA.gov is the U.S. government's official web portal to all federal, state and local government web resources and services.